[[{"header":{"parameterUnit":"m.s-1","parameterCategory":1,"la1":30.2991,"la2":30.254,"lo1":-89.0895,"lo2":-89.0444,"dy":0.0017,"dx":0.0017,"nx":28,"ny":28,"refTime":"2025-05-22T09:00:00:Z","depth":0,"parameterNumber":2,"parameterNumberName":"U-component_of_WINDS"},"data":[0,0,0,0,0,0,0,0,0,0,0,0,0,0,0,0,0,0,0,0,0,0,0,0,0,0,0,0,0,0,0,0,0,0,0,0,0,0,0,0,0,0,0,0,0,0,0,0,0,0,0,0,0,0,0,0,0,0,-1.8375,-1.8376,0,-1.8419,-1.842,-1.842,-1.8386,-1.8384,-1.8383,-1.8381,-1.8426,-1.8428,-1.8431,0,0,0,0,0,0,0,0,0,0,0,0,0,-1.8262,-1.8265,-1.8375,-1.8376,-1.8377,-1.8419,-1.842,-1.842,-1.8386,-1.8384,-1.8382,-1.838,-1.8425,-1.8428,-1.8431,0,0,0,0,0,0,0,0,0,0,0,0,0,-1.8309,-1.8265,-1.8375,-1.8364,-1.8364,-1.8419,-1.842,-1.8421,-1.8386,-1.8384,-1.8382,-1.838,-1.8424,-1.8428,-1.8432,-1.85,0,0,-1.8443,-1.8445,0,0,0,0,0,0,0,0,-1.8307,-1.8313,-1.8365,-1.8365,-1.8365,-1.8395,-1.8396,-1.8447,-1.8387,-1.8378,-1.8381,-1.8379,-1.8417,-1.8422,-1.8435,-1.8502,-1.8504,-1.8444,-1.8446,-1.8448,-1.8449,0,0,0,0,0,0,0,-1.8303,-1.8311,-1.8393,-1.8366,-1.8366,-1.8357,-1.8362,-1.8406,-1.8409,-1.8378,-1.8376,-1.8382,-1.8417,-1.8431,-1.8436,-1.8505,-1.8444,-1.8447,-1.845,-1.8451,-1.8632,-1.8635,0,0,0,0,0,0,-1.8301,-1.8309,-1.8391,-1.8394,-1.833,-1.8361,-1.8366,-1.8387,-1.8409,-1.841,-1.8383,-1.838,-1.8426,-1.8431,-1.8437,-1.852,-1.8448,-1.8451,-1.8454,-1.863,-1.8633,-1.8635,0,0,0,0,0,0,-1.8299,-1.8309,-1.839,-1.8351,-1.8361,-1.8366,-1.839,-1.8389,-1.8404,-1.8413,-1.8413,-1.8397,-1.8424,-1.8432,-1.8485,-1.8521,-1.8453,-1.8457,-1.8627,-1.8631,-1.8634,-1.8685,0,0,0,0,0,0,-1.8296,-1.8308,-1.8334,-1.8352,-1.8363,-1.8437,-1.8392,-1.8392,-1.841,-1.8406,-1.8426,-1.8427,-1.8423,-1.8479,-1.8489,-1.8525,-1.846,-1.8624,-1.8628,-1.8633,-1.868,-1.869,-1.8699,0,0,0,0,0,-1.8292,-1.8346,-1.8336,-1.8346,-1.8395,-1.8439,-1.8445,-1.8439,-1.8413,-1.844,-1.8446,-1.8427,-1.8515,-1.8485,-1.8495,-1.8533,-1.8621,-1.8627,-1.8633,-1.8676,-1.8688,-1.8699,0,0,0,0,0,0,-1.8332,-1.8348,-1.8337,-1.8398,-1.8418,-1.8433,-1.8466,-1.8452,-1.8479,-1.8474,-1.8465,-1.847,-1.8526,-1.8535,-1.8501,-1.8601,-1.8564,-1.8572,-1.8594,-1.8605,-1.8614,-1.8612,-1.8463,0,0,0,0,0,-1.8349,-1.8383,-1.8395,-1.8448,-1.8459,-1.8461,-1.848,-1.8473,-1.8493,-1.8501,-1.8511,-1.853,-1.8563,-1.8584,-1.8615,-1.8681,-1.8686,-1.8712,-1.8721,-1.8729,-1.8736,-1.8774,-1.8786,-1.8654,-1.8654,-1.8654,0,0,-1.8382,-1.8395,-1.8417,-1.8457,-1.8471,-1.8507,-1.8468,-1.8507,-1.8534,-1.8507,-1.8558,-1.8566,-1.8588,-1.8649,-1.8676,-1.8658,-1.8774,-1.8736,-1.8742,-1.8745,-1.8781,-1.8794,-1.8805,-1.8658,-1.8657,-1.8656,0,0,-1.8462,-1.8475,-1.8522,-1.8537,-1.8559,-1.8561,-1.8572,-1.859,-1.8594,-1.8646,-1.8626,-1.8658,-1.8714,-1.8731,-1.8746,-1.8834,-1.8818,-1.8844,-1.8893,-1.8929,-1.894,-1.8949,-1.8982,-1.8994,-1.8851,-1.8851,-1.8851,0,-1.8502,-1.8555,-1.8547,-1.8589,-1.8608,-1.8585,-1.8632,-1.8647,-1.8678,-1.8692,-1.8671,-1.8741,-1.8754,-1.8819,-1.8841,-1.8854,-1.8867,-1.8842,-1.8939,-1.8948,-1.8957,-1.8988,-1.9,-1.8855,-1.8854,-1.8854,-1.8854,0,-1.8603,-1.8641,-1.8676,-1.8707,-1.8729,-1.8773,-1.8773,-1.8796,-1.8789,-1.8792,-1.8846,-1.886,-1.8894,-1.8909,-1.8901,-1.8974,-1.8962,-1.894,-1.8903,-1.8973,-1.9002,-1.9014,-1.8859,-1.8858,-1.8857,-1.8856,0,0,-1.871,-1.8737,-1.875,-1.8765,-1.8788,-1.8817,-1.8861,-1.8894,-1.8915,-1.8937,-1.8975,-1.9023,-1.9003,-1.9021,-1.9015,-1.9047,-1.9118,-1.9022,-1.9022,-1.904,-1.9201,-1.9218,-1.9232,-1.9107,-1.9109,-1.9111,-1.9199,0,-1.8792,-1.8869,-1.8864,-1.8936,-1.8972,-1.8951,-1.8989,-1.9008,-1.9013,-1.9044,-1.9048,-1.9084,-1.9054,-1.9065,-1.9096,-1.9103,-1.915,-1.9096,-1.9143,-1.9144,-1.9139,-1.9247,-1.9265,-1.9348,-1.9211,-1.9213,-1.9214,0,-1.8899,-1.8926,-1.9002,-1.9021,-1.9036,-1.907,-1.9101,-1.9131,-1.9152,-1.9153,-1.9174,-1.9163,-1.9208,-1.9169,-1.9231,-1.9195,-1.9213,-1.922,-1.9223,-1.9228,-1.9184,-1.9257,-1.9374,-1.9387,-1.9232,-1.923,-1.9229,0,-1.8971,-1.9026,-1.9079,-1.9092,-1.9116,-1.9141,-1.9152,-1.9171,-1.9192,-1.9218,-1.9232,-1.9263,-1.9281,-1.9306,-1.9304,-1.9276,-1.9368,-1.9329,-1.9372,-1.9372,-1.9393,-1.9392,-1.9517,-1.9403,-1.9403,-1.9402,-1.9402,0,-1.9065,-1.9113,-1.9113,-1.9145,-1.9199,-1.9192,-1.9245,-1.9253,-1.9271,-1.9305,-1.9288,-1.9321,-1.9316,-1.9349,-1.9348,-1.9401,-1.9408,-1.9411,-1.9411,-1.9414,-1.9414,-1.9427,-1.9422,-1.9406,-1.9405,-1.9404,-1.9404,0,-1.9155,-1.9157,-1.9214,-1.9232,-1.9237,-1.9276,-1.9291,-1.9323,-1.9326,-1.937,-1.938,-1.9386,-1.9424,-1.9425,-1.9468,-1.9467,-1.9532,-1.9524,-1.9526,-1.9524,-1.9568,-1.9565,-1.9707,-1.9726,-1.9598,-1.9599,-1.96,0,-1.9215,-1.9252,-1.9274,-1.9296,-1.9309,-1.9344,-1.9366,-1.9361,-1.9384,-1.9412,-1.944,-1.9477,-1.9506,-1.9568,-1.9577,-1.961,-1.9604,-1.9651,-1.9609,-1.9611,-1.9606,-1.9605,-1.9609,-1.966,-1.9661,-1.9662,-1.9663,0,-1.9323,-1.9322,-1.9353,-1.9386,-1.9412,-1.9437,-1.9461,-1.948,-1.9478,-1.9505,-1.9544,-1.9566,-1.9611,-1.9648,-1.9681,-1.9693,-1.9679,-1.9677,-1.9689,-1.9693,-1.9693,-1.9695,-1.955,-1.9674,-1.9673,-1.9672,-1.9671,-1.9671,-1.9401,-1.9433,-1.9454,-1.949,-1.9507,-1.953,-1.9561,-1.9568,-1.9601,-1.9638,-1.9633,-1.9677,-1.9698,-1.974,-1.9755,-1.979,-1.9773,-1.979,-1.9795,-1.9799,-1.9805,-1.9686,-1.9795,-1.9795,-1.9795,-1.9795,-1.9794,0,-1.9508,-1.9521,-1.9554,-1.9588,-1.9617,-1.9601,-1.9626,-1.9651,-1.969,-1.9711,-1.9741,-1.9787,-1.9823,-1.9834,-1.9869,-1.9895,-1.989,-1.9905,-1.9903,-1.9907,-1.9817,-1.9804,-1.9909,-1.9909,-1.9909,-1.9909,-1.9909,-1.9909,-1.9568,-1.9622,-1.9624,-1.9687,-1.9699,-1.9742,-1.9758,-1.9779,-1.9796,-1.9848,-1.9879,-1.9886,-1.9903,-1.994,-1.9973,-1.9975,-1.999,-2.0008,-2.0008,-1.9924,-1.9913,-1.9902,-1.9889,-2.0011,-2.0011,-2.0095,-2.0096,-2.0096]},{"header":{"parameterUnit":"m.s-1","parameterCategory":1,"la1":30.2991,"la2":30.254,"lo1":-89.0895,"lo2":-89.0444,"dy":0.0017,"dx":0.0017,"nx":28,"ny":28,"refTime":"2025-05-22T09:00:00:Z","depth":0,"parameterNumber":3,"parameterNumberName":"V-component_of_WINDS"},"data":[0,0,0,0,0,0,0,0,0,0,0,0,0,0,0,0,0,0,0,0,0,0,0,0,0,0,0,0,0,0,0,0,0,0,0,0,0,0,0,0,0,0,0,0,0,0,0,0,0,0,0,0,0,0,0,0,0,0,-2.1214,-2.1214,0,-2.1207,-2.1207,-2.1207,-2.1146,-2.1145,-2.1143,-2.1142,-2.1137,-2.1139,-2.114,0,0,0,0,0,0,0,0,0,0,0,0,0,-2.1176,-2.1177,-2.1214,-2.1214,-2.1214,-2.1207,-2.1207,-2.1207,-2.1147,-2.1145,-2.1143,-2.1141,-2.1137,-2.1138,-2.114,0,0,0,0,0,0,0,0,0,0,0,0,0,-2.1183,-2.1177,-2.1214,-2.1183,-2.118,-2.1207,-2.1207,-2.1207,-2.1147,-2.1145,-2.1143,-2.114,-2.1136,-2.1138,-2.114,-2.1197,0,0,-2.1146,-2.1147,0,0,0,0,0,0,0,0,-2.1183,-2.1184,-2.1187,-2.1185,-2.1182,-2.1175,-2.1192,-2.1204,-2.1148,-2.116,-2.1142,-2.1139,-2.1152,-2.1152,-2.1156,-2.1197,-2.1197,-2.1146,-2.1147,-2.1148,-2.1149,0,0,0,0,0,0,0,-2.1182,-2.1184,-2.1211,-2.1188,-2.1184,-2.1169,-2.1168,-2.1194,-2.1169,-2.1158,-2.1154,-2.1154,-2.115,-2.1154,-2.1156,-2.1197,-2.1146,-2.1148,-2.1149,-2.115,-2.1284,-2.1286,0,0,0,0,0,0,-2.1186,-2.1184,-2.1211,-2.1211,-2.1177,-2.1172,-2.117,-2.118,-2.1168,-2.1164,-2.1156,-2.1151,-2.1152,-2.1153,-2.1155,-2.1221,-2.1148,-2.115,-2.1151,-2.1281,-2.1284,-2.1287,0,0,0,0,0,0,-2.1185,-2.1189,-2.1212,-2.1196,-2.1198,-2.1175,-2.1186,-2.1181,-2.1185,-2.1166,-2.1162,-2.1165,-2.1151,-2.1153,-2.1187,-2.122,-2.1151,-2.1153,-2.1278,-2.1282,-2.1286,-2.1354,0,0,0,0,0,0,-2.1184,-2.1189,-2.121,-2.1197,-2.1199,-2.1244,-2.1188,-2.1182,-2.1188,-2.1182,-2.1174,-2.117,-2.1149,-2.1184,-2.1189,-2.1222,-2.1154,-2.1275,-2.128,-2.1284,-2.1349,-2.136,-2.1369,0,0,0,0,0,-2.1183,-2.1231,-2.1212,-2.1215,-2.1226,-2.1246,-2.1247,-2.1221,-2.1191,-2.1213,-2.12,-2.117,-2.1216,-2.1189,-2.1193,-2.1227,-2.1273,-2.1279,-2.1284,-2.1344,-2.1358,-2.1369,0,0,0,0,0,0,-2.1249,-2.1228,-2.1207,-2.1252,-2.1251,-2.1235,-2.1262,-2.1236,-2.1244,-2.1238,-2.1206,-2.1204,-2.1244,-2.1238,-2.1209,-2.1281,-2.1239,-2.1246,-2.1283,-2.1296,-2.1306,-2.1307,-2.1156,0,0,0,0,0,-2.1269,-2.1286,-2.1267,-2.1308,-2.1309,-2.1286,-2.1293,-2.1273,-2.1271,-2.1271,-2.1261,-2.1261,-2.1275,-2.1285,-2.1297,-2.1347,-2.1345,-2.1373,-2.1383,-2.1391,-2.1397,-2.1424,-2.1436,-2.1305,-2.1305,-2.1304,0,0,-2.131,-2.1301,-2.1314,-2.1321,-2.1318,-2.1338,-2.1286,-2.1308,-2.1322,-2.1274,-2.1306,-2.1299,-2.1296,-2.1339,-2.1358,-2.1336,-2.1433,-2.1398,-2.1405,-2.1407,-2.143,-2.1443,-2.1454,-2.1308,-2.1308,-2.1307,0,0,-2.1395,-2.1389,-2.1423,-2.142,-2.1415,-2.1399,-2.1407,-2.1395,-2.1388,-2.142,-2.1384,-2.14,-2.1425,-2.1425,-2.1428,-2.151,-2.1483,-2.1515,-2.1568,-2.1594,-2.1604,-2.1613,-2.1643,-2.1654,-2.1521,-2.1522,-2.1522,0,-2.1447,-2.1474,-2.1443,-2.1468,-2.1472,-2.1428,-2.1462,-2.1461,-2.1461,-2.1466,-2.1441,-2.1471,-2.1466,-2.1508,-2.1528,-2.1532,-2.154,-2.1517,-2.1605,-2.1614,-2.1622,-2.165,-2.1661,-2.1526,-2.1525,-2.1525,-2.1524,0,-2.1538,-2.1557,-2.1584,-2.1584,-2.1591,-2.1621,-2.1595,-2.1606,-2.1585,-2.1572,-2.1604,-2.1596,-2.1605,-2.1614,-2.1594,-2.1653,-2.1639,-2.1611,-2.1568,-2.1639,-2.1665,-2.1675,-2.1531,-2.153,-2.1529,-2.1528,0,0,-2.1666,-2.1647,-2.1658,-2.1657,-2.1648,-2.1662,-2.1689,-2.1697,-2.1707,-2.1708,-2.173,-2.1752,-2.1725,-2.1728,-2.1708,-2.173,-2.1796,-2.1698,-2.1698,-2.1717,-2.1861,-2.1883,-2.1896,-2.1778,-2.1779,-2.1781,-2.1861,0,-2.1747,-2.1792,-2.1765,-2.1813,-2.1831,-2.1788,-2.1811,-2.1809,-2.1797,-2.181,-2.1796,-2.1812,-2.1775,-2.1776,-2.1797,-2.1784,-2.1825,-2.1778,-2.1799,-2.18,-2.1801,-2.191,-2.1934,-2.201,-2.1871,-2.1873,-2.1874,0,-2.1849,-2.1853,-2.1904,-2.189,-2.1896,-2.1918,-2.1923,-2.1935,-2.1931,-2.1921,-2.1924,-2.1897,-2.1923,-2.188,-2.1915,-2.1884,-2.189,-2.1885,-2.1887,-2.1889,-2.1842,-2.1915,-2.2033,-2.2045,-2.189,-2.1888,-2.1887,0,-2.1938,-2.1956,-2.1988,-2.1989,-2.1974,-2.199,-2.1984,-2.1978,-2.1984,-2.1988,-2.1992,-2.2,-2.2004,-2.2011,-2.1987,-2.1958,-2.2025,-2.198,-2.2018,-2.2019,-2.2035,-2.2035,-2.2157,-2.2038,-2.2038,-2.2038,-2.2038,0,-2.2032,-2.2065,-2.2028,-2.2048,-2.2083,-2.2051,-2.2087,-2.2077,-2.2071,-2.2088,-2.2052,-2.207,-2.2037,-2.2051,-2.2032,-2.2065,-2.2067,-2.2059,-2.2054,-2.2063,-2.2064,-2.2068,-2.2062,-2.2041,-2.204,-2.204,-2.2039,0,-2.2138,-2.2114,-2.2147,-2.2129,-2.2125,-2.2152,-2.2137,-2.2155,-2.214,-2.2162,-2.2166,-2.2142,-2.2157,-2.2133,-2.2146,-2.2133,-2.2178,-2.2164,-2.2179,-2.2175,-2.2214,-2.2211,-2.2344,-2.236,-2.2231,-2.2232,-2.2233,0,-2.2201,-2.2225,-2.2209,-2.2218,-2.2214,-2.2228,-2.2234,-2.2203,-2.2211,-2.2207,-2.2226,-2.2237,-2.2244,-2.227,-2.2254,-2.2263,-2.225,-2.2296,-2.2251,-2.2259,-2.2251,-2.2251,-2.2253,-2.2306,-2.2307,-2.2308,-2.2309,0,-2.2314,-2.2301,-2.231,-2.2315,-2.2323,-2.2326,-2.2326,-2.2335,-2.2302,-2.2313,-2.2327,-2.2332,-2.2344,-2.2356,-2.2361,-2.2356,-2.2328,-2.2323,-2.2333,-2.2342,-2.235,-2.2347,-2.2205,-2.2321,-2.232,-2.2319,-2.2318,-2.2318,-2.2401,-2.242,-2.2411,-2.2423,-2.2419,-2.242,-2.2435,-2.2421,-2.2432,-2.2438,-2.2419,-2.2438,-2.2432,-2.2435,-2.2433,-2.2448,-2.2427,-2.2441,-2.2444,-2.2448,-2.2455,-2.2347,-2.2448,-2.2448,-2.2448,-2.2447,-2.2447,0,-2.2513,-2.2505,-2.2515,-2.2516,-2.2525,-2.2496,-2.2494,-2.2504,-2.252,-2.2517,-2.2524,-2.254,-2.2551,-2.2535,-2.2544,-2.2558,-2.2546,-2.2562,-2.2561,-2.256,-2.2472,-2.2463,-2.2572,-2.2572,-2.2572,-2.2572,-2.2572,-2.2572,-2.2572,-2.2603,-2.2588,-2.2616,-2.2608,-2.2625,-2.2626,-2.2627,-2.2624,-2.2643,-2.2651,-2.264,-2.2632,-2.2639,-2.2648,-2.2643,-2.2648,-2.2669,-2.266,-2.2579,-2.2566,-2.2555,-2.2547,-2.267,-2.2671,-2.2747,-2.2748,-2.2748]}]]